Flag for Poland Weather past 2 weeks in Zielona Góra, Poland

Now
31 °F

Low clouds.


Feels Like: 31 °F
Forecast: 30 / 34 °F
Wind: 2 mph from West

Location: Zielona Gora

Current Time: Jan 26, 2015 at 12:11:22 AM

Latest Report: Jan 25, 2015 at 11:00 PM


Visibility: 2 mi

Pressure: 30.32 "Hg

Humidity: 95%

Dew point: 29 °F

Location of Zielona GóraLocation

Historic Weather in Zielona Góra — Graph

°F

Zielona Góra temperature yesterday

Maximum temperature yesterday: 32 °F (at 11:00 AM)
Minimum temperature yesterday: 29 °F (at 12:00 AM)
Average temperature yesterday: 31 °F

Past Weeks' High & Low Weather Summary

 TemperatureHumidityPressure
High53 °F (Jan 13, 2:00 PM)98% (Jan 19, 10:00 AM)30.32 "Hg (Jan 19, 10:00 AM)
Low25 °F (Jan 24, 5:00 PM)45% (Jan 13, 8:00 PM)29.57 "Hg (Jan 10, 9:00 PM)
Average36 °F85%29.96 "Hg
* Reported Jan 10 9:00 PM — Jan 25 9:00 PM, Zielona Góra, Weather by CustomWeather, © 2014

Note: Actual official high and low records may vary slightly from our data, if they occured in-between our weather recording intervals... More about our weather records

Advertising

Zielona Góra weather history for previous 24 hours

 ConditionsComfort  
Time TempWeatherWind HumidityBarometerVisibility
9:00 PM
Jan 25
31 °FLow clouds.3 mph97%30.32 "Hg2 mi
8:00 PM31 °FDrizzle. Low clouds.2 mph97%30.31 "Hg1 mi
7:00 PM31 °FDrizzle. Low clouds.2 mph97%30.30 "Hg1 mi
6:00 PM31 °FFog.2 mph97%30.29 "Hg1 mi
5:00 PM31 °FFog.3 mph97%30.28 "Hg2 mi
4:00 PM32 °FFog.2 mph98%30.27 "Hg0 mi
3:00 PM32 °FFog.2 mph97%30.25 "Hg0 mi
2:00 PM32 °FSnow flurries. Ice fog.3 mph97%30.24 "Hg0 mi
1:00 PM32 °FSnow flurries. Low clouds.3 mph97%30.24 "Hg1 mi
12:00 PM32 °FDrizzle. Low clouds.3 mph97%30.25 "Hg1 mi
11:00 AM32 °FDrizzle. Low clouds.3 mph97%30.25 "Hg1 mi
10:00 AM31 °FDrizzle. Low clouds.5 mph97%30.24 "Hg1 mi
9:00 AM31 °FFog.3 mph97%30.22 "Hg1 mi
8:00 AM31 °FLight rain. Low clouds.5 mph97%30.20 "Hg1 mi
7:00 AM31 °FFog.5 mph97%30.18 "Hg0 mi
6:00 AM30 °FLight snow. Low clouds.3 mph97%30.16 "Hg1 mi
5:00 AM29 °FFog.3 mph96%30.15 "Hg1 mi
4:00 AM29 °FFog.3 mph95%30.15 "Hg2 mi
3:00 AM29 °FLow clouds.3 mph93%30.14 "Hg2 mi
2:00 AM29 °FFog.2 mph91%30.14 "Hg3 mi
1:00 AM29 °FFog.1 mph89%30.13 "Hg4 mi
12:00 AM29 °FFog.2 mph89%30.13 "Hg5 mi
Weather by CustomWeather, © 2014

See weather overviewHow to use our weather pages